Flag for Colombia Weather past 2 weeks in Barranquilla, Colombia

Now
81 °F

Scattered clouds.


Feels Like: 87 °F
Forecast: 80 / 89 °F
Wind: 9 mph from Northeast

Location: Barranquilla / Ernestocortissoz

Current Time: May 24, 2015 at 6:45:54 AM

Latest Report: May 24, 2015 at 6:00 AM


Visibility: N/A

Pressure: 29.82 "Hg

Humidity: 89%

Dew point: 77 °F

Location of BarranquillaLocation

Historic Weather in Barranquilla — Graph

°F

Barranquilla temperature yesterday

Maximum temperature yesterday: 93 °F (at 11:00 AM)
Minimum temperature yesterday: 81 °F (at 12:00 AM)
Average temperature yesterday: 84 °F

Past Weeks' High & Low Weather Summary

 TemperatureHumidityPressure
High95 °F (May 20, 12:00 PM)100% (May 14, 11:00 AM)30.13 "Hg (May 14, 11:00 AM)
Low73 °F (May 14, 12:00 PM)44% (May 14, 12:00 PM)29.69 "Hg (May 13, 5:00 PM)
Average83 °F81%29.82 "Hg
* Reported May 9 6:00 AM — May 24 6:00 AM, Barranquilla, Weather by CustomWeather, © 2015

Note: Actual official high and low records may vary slightly from our data, if they occured in-between our weather recording intervals... More about our weather records

Advertising

Barranquilla weather history for previous 24 hours

 ConditionsComfort  
Time TempWeatherWind HumidityBarometerVisibility
6:00 AM
Sun, May 24
81 °FScattered clouds.9 mph89%29.82 "HgN/A
5:00 AM81 °FClear.No wind84%29.83 "Hg10 mi
4:00 AM81 °FClear.9 mph89%29.81 "Hg10 mi
3:00 AM81 °FClear.5 mph84%29.81 "Hg10 mi
2:00 AM81 °FClear.9 mph84%29.80 "Hg10 mi
1:00 AM81 °FClear.12 mph84%29.81 "Hg10 mi
12:00 AM81 °FClear.9 mph89%29.82 "Hg10 mi
11:00 PM
Sat, May 23
81 °FClear.14 mph89%29.84 "Hg10 mi
10:00 PM81 °FClear.16 mph89%29.82 "Hg10 mi
9:00 PM82 °FPassing clouds.10 mph79%29.81 "HgN/A
8:00 PM82 °FPassing clouds.14 mph84%29.80 "HgN/A
7:00 PM82 °FPassing clouds.23 mph84%29.81 "HgN/A
6:00 PM82 °FScattered clouds.13 mph84%29.80 "HgN/A
5:00 PM84 °FScattered clouds.9 mph79%29.80 "HgN/A
4:00 PM88 °FScattered clouds.14 mph75%29.81 "HgN/A
3:00 PM88 °FScattered clouds.20 mph70%29.82 "HgN/A
2:00 PM90 °FScattered clouds.12 mph67%29.84 "HgN/A
1:00 PM90 °FScattered clouds.18 mph67%29.86 "HgN/A
12:00 PM93 °FScattered clouds.12 mph63%29.87 "HgN/A
11:00 AM93 °FScattered clouds.9 mph59%29.89 "HgN/A
10:00 AM90 °FScattered clouds.12 mph67%29.89 "HgN/A
9:00 AM86 °FScattered clouds.9 mph79%29.91 "HgN/A
8:00 AM84 °FScattered clouds.9 mph79%29.90 "HgN/A
7:00 AM81 °FBroken clouds.9 mph89%29.90 "Hg4 mi
6:00 AM81 °FPartly sunny.5 mph94%29.87 "Hg3 mi
Weather by CustomWeather, © 2015

See weather overviewHow to use our weather pages